Weather in Oban

United Kingdom     56°24′36″N   5°28′28″W
temp.,
°C
wind,
m/s
gust,
m/s
humid.,
%
clouds,
%
prec.,
mm/h
press.,
hPa
HPBL,
m
21 april, wed
wed2101:00+4nne34740 0.0 1024102
04:00+3ne34770 0.0 1024124
07:00+3ne33755 0.0 1025130
10:00+7ne23515 0.0 1026457
13:00+9wnw11425 0.0 1026619
16:00+9ssw114612 0.0 1025651
19:00+9wsw126048 0.0 1025166
22:00+6wnw1173100 0.0 102625
22 april, thu
thu2201:00+6e007295 0.0 102727
04:00+5sse007517 0.0 102736
07:00+5ene117698 0.0 102839
10:00+8ssw11646 0.0 1028278
13:00+9ssw115955 0.0 1029549
16:00+9s22585 0.0 1029469
19:00+9ssw126324 0.0 1029149
22:00+7ssw117579 0.0 102910
23 april, fri
fri2301:00+7ese1175100 0.0 103010
04:00+6ene117379 0.0 103020
07:00+6ne1170100 0.0 103044
10:00+9s015890 0.0 1031214
13:00+10sw22535 0.0 1031520
16:00+10sw1148100 0.0 1030418
19:00+10s115766 0.0 103075
22:00+8sse0067100 0.0 103110
24 april, sat
sat2401:00+8ne1168100 0.0 103110
04:00+8ne1167100 0.0 103110
07:00+8ne22675 0.0 103115
10:00+11ne11590 0.0 1031226
13:00+13w11491 0.0 1031695
16:00+13sw21529 0.0 1031516
19:00+12sw226491 0.0 103194
22:00+9wsw1173100 0.0 103210
25 april, sun
sun2501:00+9e007799 0.0 103210
04:00+8e1178100 0.0 103210
07:00+8ene118099 0.0 103211
10:00+11ssw0172100 0.0 1032186
13:00+11sw2267100 0.0 1031479
16:00+11ssw2266100 0.0 1031349
19:00+11ssw1272100 0.0 103090
22:00+9w0181100 0.0 103010